TimeEDT,TemperatureF,Dew PointF,Humidity,Sea Level PressureIn,VisibilityMPH,Wind Direction,Wind SpeedMPH,Gust SpeedMPH,PrecipitationIn,Events,Conditions,WindDirDegrees,DateUTC
12:11 AM,51.8,41.0,67,30.10,10.0,Calm,Calm,-,N/A,,Clear,0,2014-05-07 04:11:00
12:31 AM,51.8,41.0,67,30.10,10.0,Calm,Calm,-,N/A,,Clear,0,2014-05-07 04:31:00
12:51 AM,50.0,41.0,71,30.10,10.0,Calm,Calm,-,N/A,,Clear,0,2014-05-07 04:51:00
1:11 AM,50.0,39.2,66,30.11,10.0,Calm,Calm,-,N/A,,Clear,0,2014-05-07 05:11:00
1:31 AM,50.0,42.8,76,30.11,10.0,Calm,Calm,-,N/A,,Clear,0,2014-05-07 05:31:00
1:51 AM,46.4,41.0,81,30.11,10.0,NE,8.1,-,N/A,,Clear,40,2014-05-07 05:51:00
2:11 AM,48.2,41.0,76,30.11,10.0,North,5.8,-,N/A,,Clear,360,2014-05-07 06:11:00
2:31 AM,50.0,39.2,66,30.12,10.0,North,3.5,-,N/A,,Clear,360,2014-05-07 06:31:00
2:51 AM,50.0,39.2,66,30.12,10.0,Calm,Calm,-,N/A,,Clear,0,2014-05-07 06:51:00
3:11 AM,50.0,39.2,66,30.12,10.0,North,3.5,-,N/A,,Clear,350,2014-05-07 07:11:00
3:31 AM,48.2,39.2,71,30.13,10.0,Calm,Calm,-,N/A,,Clear,0,2014-05-07 07:31:00
3:51 AM,46.4,39.2,76,30.13,10.0,Calm,Calm,-,N/A,,Clear,0,2014-05-07 07:51:00
4:11 AM,46.4,37.4,71,30.14,10.0,Calm,Calm,-,N/A,,Clear,0,2014-05-07 08:11:00
4:31 AM,46.4,39.2,76,30.14,10.0,Calm,Calm,-,N/A,,Clear,0,2014-05-07 08:31:00
4:51 AM,46.4,39.2,76,30.15,10.0,Calm,Calm,-,N/A,,Clear,0,2014-05-07 08:51:00
5:12 AM,44.6,41.0,87,30.15,10.0,Calm,Calm,-,N/A,,Clear,0,2014-05-07 09:12:00
5:32 AM,44.6,41.0,87,30.16,10.0,Calm,Calm,-,N/A,,Clear,0,2014-05-07 09:32:00
5:52 AM,44.6,41.0,87,30.17,10.0,Calm,Calm,-,N/A,,Clear,0,2014-05-07 09:52:00
6:12 AM,44.6,41.0,87,30.17,10.0,Calm,Calm,-,N/A,,Clear,0,2014-05-07 10:12:00
6:32 AM,44.6,41.0,87,30.18,10.0,Calm,Calm,-,N/A,,Scattered Clouds,0,2014-05-07 10:32:00
6:52 AM,44.6,41.0,87,30.19,10.0,Calm,Calm,-,N/A,,Mostly Cloudy,0,2014-05-07 10:52:00
7:12 AM,46.4,42.8,87,30.19,10.0,Calm,Calm,-,N/A,,Overcast,0,2014-05-07 11:12:00
7:32 AM,48.2,41.0,76,30.19,10.0,Calm,Calm,-,N/A,,Overcast,0,2014-05-07 11:32:00
7:52 AM,48.2,42.8,82,30.19,10.0,Calm,Calm,-,N/A,,Overcast,0,2014-05-07 11:52:00
8:12 AM,50.0,42.8,76,30.19,5.0,Calm,Calm,-,N/A,,Overcast,0,2014-05-07 12:12:00
8:32 AM,50.0,44.6,82,30.20,10.0,Calm,Calm,-,N/A,,Overcast,0,2014-05-07 12:32:00
8:52 AM,50.0,44.6,82,30.20,10.0,Calm,Calm,-,N/A,,Overcast,0,2014-05-07 12:52:00
9:12 AM,50.0,44.6,82,30.20,10.0,Calm,Calm,-,N/A,,Overcast,0,2014-05-07 13:12:00
9:32 AM,50.0,46.4,87,30.22,10.0,NW,4.6,-,N/A,,Mostly Cloudy,320,2014-05-07 13:32:00
9:52 AM,50.0,46.4,87,30.27,1.2,NW,6.9,-,N/A,,Overcast,310,2014-05-07 13:52:00
10:12 AM,46.4,44.6,93,30.30,2.0,NNE,10.4,-,N/A,,Overcast,20,2014-05-07 14:12:00
10:32 AM,46.4,44.6,93,30.27,1.8,ENE,6.9,-,N/A,,Overcast,70,2014-05-07 14:32:00
10:52 AM,46.4,44.6,93,30.28,5.0,WNW,3.5,-,N/A,,Overcast,300,2014-05-07 14:52:00
11:12 AM,46.4,44.6,93,30.25,3.0,South,5.8,-,N/A,,Overcast,190,2014-05-07 15:12:00
11:32 AM,46.4,44.6,93,30.27,7.0,Calm,Calm,-,N/A,,Mostly Cloudy,0,2014-05-07 15:32:00
11:52 AM,46.4,46.4,100,30.26,10.0,Calm,Calm,-,N/A,,Scattered Clouds,0,2014-05-07 15:52:00
12:12 PM,48.2,44.6,87,30.26,10.0,Calm,Calm,-,N/A,,Mostly Cloudy,0,2014-05-07 16:12:00
12:32 PM,48.2,46.4,93,30.26,10.0,Calm,Calm,-,N/A,,Mostly Cloudy,0,2014-05-07 16:32:00
12:52 PM,50.0,46.4,87,30.25,10.0,Calm,Calm,-,N/A,,Scattered Clouds,0,2014-05-07 16:52:00
1:12 PM,51.8,46.4,82,30.24,10.0,Calm,Calm,-,N/A,,Scattered Clouds,0,2014-05-07 17:12:00
1:33 PM,51.8,46.4,82,30.23,10.0,Calm,Calm,-,N/A,,Mostly Cloudy,0,2014-05-07 17:33:00
1:53 PM,53.6,46.4,77,30.22,10.0,Calm,Calm,-,N/A,,Overcast,0,2014-05-07 17:53:00
2:13 PM,53.6,46.4,77,30.22,10.0,SSE,3.5,-,N/A,,Mostly Cloudy,150,2014-05-07 18:13:00
2:33 PM,53.6,46.4,77,30.21,10.0,Calm,Calm,-,N/A,,Scattered Clouds,0,2014-05-07 18:33:00
2:53 PM,55.4,50.0,82,30.20,10.0,SW,3.5,-,N/A,,Scattered Clouds,220,2014-05-07 18:53:00
3:13 PM,59.0,50.0,72,30.18,10.0,Calm,Calm,-,N/A,,Scattered Clouds,0,2014-05-07 19:13:00
3:33 PM,59.0,50.0,72,30.17,10.0,Calm,Calm,-,N/A,,Clear,0,2014-05-07 19:33:00
3:53 PM,60.8,50.0,68,30.17,10.0,Calm,Calm,-,N/A,,Clear,0,2014-05-07 19:53:00
4:13 PM,60.8,51.8,72,30.15,10.0,Calm,Calm,-,N/A,,Clear,0,2014-05-07 20:13:00
4:33 PM,62.6,51.8,68,30.14,10.0,Calm,Calm,-,N/A,,Clear,0,2014-05-07 20:33:00
4:53 PM,62.6,51.8,68,30.15,10.0,Calm,Calm,-,N/A,,Clear,0,2014-05-07 20:53:00
5:13 PM,64.4,51.8,64,30.14,10.0,Calm,Calm,-,N/A,,Clear,0,2014-05-07 21:13:00
5:33 PM,64.4,51.8,64,30.14,10.0,Calm,Calm,-,N/A,,Clear,0,2014-05-07 21:33:00
5:53 PM,64.4,51.8,64,30.13,10.0,Calm,Calm,-,N/A,,Clear,0,2014-05-07 21:53:00
6:13 PM,62.6,51.8,68,30.13,10.0,NW,4.6,-,N/A,,Clear,320,2014-05-07 22:13:00
6:33 PM,62.6,51.8,68,30.13,10.0,Calm,Calm,-,N/A,,Clear,0,2014-05-07 22:33:00
6:53 PM,62.6,51.8,68,30.13,10.0,North,4.6,-,N/A,,Clear,10,2014-05-07 22:53:00
7:13 PM,62.6,51.8,68,30.14,10.0,NNE,5.8,-,N/A,,Clear,30,2014-05-07 23:13:00
7:33 PM,60.8,51.8,72,30.15,10.0,NNE,9.2,-,N/A,,Clear,20,2014-05-07 23:33:00
7:53 PM,59.0,50.0,72,30.16,10.0,NNE,8.1,-,N/A,,Clear,30,2014-05-07 23:53:00
8:13 PM,59.0,50.0,72,30.17,10.0,NNE,6.9,-,N/A,,Clear,20,2014-05-08 00:13:00
8:33 PM,59.0,50.0,72,30.17,10.0,NNE,3.5,-,N/A,,Clear,20,2014-05-08 00:33:00
8:53 PM,59.0,50.0,72,30.17,10.0,Calm,Calm,-,N/A,,Clear,0,2014-05-08 00:53:00
9:13 PM,59.0,50.0,72,30.17,10.0,Calm,Calm,-,N/A,,Clear,0,2014-05-08 01:13:00
9:33 PM,57.2,50.0,77,30.17,10.0,Calm,Calm,-,N/A,,Clear,0,2014-05-08 01:33:00
9:53 PM,55.4,50.0,82,30.18,10.0,Calm,Calm,-,N/A,,Clear,0,2014-05-08 01:53:00
10:13 PM,57.2,50.0,77,30.18,10.0,Calm,Calm,-,N/A,,Clear,0,2014-05-08 02:13:00
10:34 PM,55.4,50.0,82,30.17,10.0,Calm,Calm,-,N/A,,Clear,0,2014-05-08 02:34:00
10:54 PM,55.4,50.0,82,30.17,10.0,Calm,Calm,-,N/A,,Clear,0,2014-05-08 02:54:00
11:14 PM,55.4,50.0,82,30.17,10.0,NNW,3.5,-,N/A,,Scattered Clouds,340,2014-05-08 03:14:00
11:34 PM,53.6,51.8,94,30.16,10.0,Calm,Calm,-,N/A,,Mostly Cloudy,0,2014-05-08 03:34:00
11:54 PM,53.6,50.0,88,30.16,10.0,Calm,Calm,-,N/A,,Mostly Cloudy,0,2014-05-08 03:54:00